Time,TemperatureF,DewpointF,PressureIn,WindDirection,WindDirectionDegrees,WindSpeedMPH,WindSpeedGustMPH,Humidity,HourlyPrecipIn,Conditions,Clouds,dailyrainin,SoftwareType,DateUTC
2013-01-16 00:08:00,27.3,26.0,30.73,ENE,60,0.0,1.0,94,0.00,,,0.00,weatherlink.com 1.10,2013-01-16 08:08:00,
2013-01-16 00:23:00,27.1,25.0,30.73,ENE,65,0.0,2.0,93,0.00,,,0.00,weatherlink.com 1.10,2013-01-16 08:23:00,
2013-01-16 00:38:00,27.1,25.0,30.73,ENE,66,1.0,2.0,93,0.00,,,0.00,weatherlink.com 1.10,2013-01-16 08:38:00,
2013-01-16 00:53:00,27.0,25.0,30.73,ENE,58,3.0,3.0,93,0.00,,,0.00,weatherlink.com 1.10,2013-01-16 08:53:00,
2013-01-16 01:08:00,26.6,25.0,30.73,NE,56,2.0,2.0,94,0.00,,,0.00,weatherlink.com 1.10,2013-01-16 09:08:00,
2013-01-16 01:23:00,26.7,25.0,30.73,ENE,59,1.0,1.0,94,0.00,,,0.00,weatherlink.com 1.10,2013-01-16 09:23:00,
2013-01-16 01:38:00,27.2,26.0,30.73,ENE,68,2.0,2.0,94,0.00,,,0.00,weatherlink.com 1.10,2013-01-16 09:38:00,
2013-01-16 01:53:00,27.1,25.0,30.73,ENE,65,0.0,2.0,93,0.00,,,0.00,weatherlink.com 1.10,2013-01-16 09:53:00,
2013-01-16 02:08:00,27.1,26.0,30.73,ENE,60,0.0,2.0,94,0.00,,,0.00,weatherlink.com 1.10,2013-01-16 10:08:00,
2013-01-16 02:23:00,26.9,25.0,30.73,NE,51,0.0,2.0,93,0.00,,,0.00,weatherlink.com 1.10,2013-01-16 10:23:00,
2013-01-16 02:38:00,26.8,25.0,30.73,ENE,63,1.0,2.0,94,0.00,,,0.00,weatherlink.com 1.10,2013-01-16 10:38:00,
2013-01-16 02:53:00,27.3,26.0,30.73,ENE,66,2.0,2.0,93,0.00,,,0.00,weatherlink.com 1.10,2013-01-16 10:53:00,
2013-01-16 03:08:00,28.0,27.0,30.74,NE,53,2.0,2.0,94,0.00,,,0.00,weatherlink.com 1.10,2013-01-16 11:08:00,
2013-01-16 03:23:00,28.6,27.0,30.73,ENE,73,1.0,2.0,93,0.00,,,0.00,weatherlink.com 1.10,2013-01-16 11:23:00,
2013-01-16 03:38:00,28.2,27.0,30.73,East,81,1.0,1.0,93,0.00,,,0.00,weatherlink.com 1.10,2013-01-16 11:38:00,
2013-01-16 03:53:00,28.4,27.0,30.72,ENE,76,0.0,2.0,93,0.00,,,0.00,weatherlink.com 1.10,2013-01-16 11:53:00,
2013-01-16 04:08:00,28.6,27.0,30.72,ENE,76,0.0,1.0,93,0.00,,,0.00,weatherlink.com 1.10,2013-01-16 12:08:00,
2013-01-16 04:23:00,28.9,27.0,30.72,ENE,66,1.0,2.0,93,0.00,,,0.00,weatherlink.com 1.10,2013-01-16 12:23:00,
2013-01-16 04:38:00,29.0,28.0,30.72,ENE,60,0.0,1.0,94,0.00,,,0.00,weatherlink.com 1.10,2013-01-16 12:38:00,
2013-01-16 04:53:00,28.9,27.0,30.71,East,79,0.0,1.0,93,0.00,,,0.00,weatherlink.com 1.10,2013-01-16 12:53:00,
2013-01-16 05:08:00,28.8,27.0,30.71,ENE,75,0.0,2.0,93,0.00,,,0.00,weatherlink.com 1.10,2013-01-16 13:08:00,
2013-01-16 05:23:00,29.0,27.0,30.70,ENE,72,0.0,1.0,93,0.00,,,0.00,weatherlink.com 1.10,2013-01-16 13:23:00,
2013-01-16 05:38:00,28.9,27.0,30.70,ENE,68,0.0,1.0,93,0.00,,,0.00,weatherlink.com 1.10,2013-01-16 13:38:00,
2013-01-16 05:53:00,29.0,27.0,30.70,ENE,70,1.0,3.0,93,0.00,,,0.00,weatherlink.com 1.10,2013-01-16 13:53:00,
2013-01-16 06:08:00,29.2,28.0,30.70,ENE,61,2.0,3.0,93,0.00,,,0.00,weatherlink.com 1.10,2013-01-16 14:08:00,
2013-01-16 06:23:00,28.7,27.0,30.70,ENE,63,2.0,2.0,93,0.00,,,0.00,weatherlink.com 1.10,2013-01-16 14:23:00,
2013-01-16 06:38:00,28.5,27.0,30.69,ENE,75,1.0,4.0,93,0.00,,,0.00,weatherlink.com 1.10,2013-01-16 14:38:00,
2013-01-16 06:53:00,28.4,27.0,30.69,ENE,58,1.0,3.0,93,0.00,,,0.00,weatherlink.com 1.10,2013-01-16 14:53:00,
2013-01-16 07:08:00,28.1,26.0,30.69,ENE,68,1.0,1.0,93,0.00,,,0.00,weatherlink.com 1.10,2013-01-16 15:08:00,
2013-01-16 07:23:00,27.7,26.0,30.69,ENE,58,2.0,2.0,93,0.00,,,0.00,weatherlink.com 1.10,2013-01-16 15:23:00,
2013-01-16 07:38:00,27.5,26.0,30.69,ENE,68,1.0,2.0,93,0.00,,,0.00,weatherlink.com 1.10,2013-01-16 15:38:00,
2013-01-16 07:53:00,27.4,26.0,30.69,NE,50,2.0,3.0,93,0.00,,,0.00,weatherlink.com 1.10,2013-01-16 15:53:00,
2013-01-16 08:08:00,27.7,26.0,30.70,ENE,68,2.0,3.0,93,0.00,,,0.00,weatherlink.com 1.10,2013-01-16 16:08:00,
2013-01-16 08:23:00,28.0,26.0,30.70,ENE,68,2.0,3.0,93,0.00,,,0.00,weatherlink.com 1.10,2013-01-16 16:23:00,
2013-01-16 08:38:00,28.4,26.0,30.70,NE,53,2.0,2.0,92,0.00,,,0.00,weatherlink.com 1.10,2013-01-16 16:38:00,
2013-01-16 08:53:00,29.1,27.0,30.69,ENE,77,1.0,2.0,92,0.00,,,0.00,weatherlink.com 1.10,2013-01-16 16:53:00,
2013-01-16 09:09:00,30.1,28.0,30.69,East,93,0.0,1.0,90,0.00,,,0.00,weatherlink.com 1.10,2013-01-16 17:09:00,
2013-01-16 09:24:00,31.0,29.0,30.70,East,85,1.0,2.0,90,0.00,,,0.00,weatherlink.com 1.10,2013-01-16 17:24:00,
2013-01-16 09:39:00,31.8,29.0,30.70,East,82,1.0,2.0,89,0.00,,,0.00,weatherlink.com 1.10,2013-01-16 17:39:00,
2013-01-16 09:54:00,32.8,30.0,30.69,NE,48,3.0,3.0,88,0.00,,,0.00,weatherlink.com 1.10,2013-01-16 17:54:00,
2013-01-16 10:09:00,33.8,30.0,30.69,NE,56,3.0,4.0,86,0.00,,,0.00,weatherlink.com 1.10,2013-01-16 18:09:00,
2013-01-16 10:24:00,35.0,31.0,30.68,NE,49,3.0,5.0,84,0.00,,,0.00,weatherlink.com 1.10,2013-01-16 18:24:00,
2013-01-16 10:39:00,36.1,31.0,30.69,North,1,3.0,6.0,83,0.00,,,0.00,weatherlink.com 1.10,2013-01-16 18:39:00,
2013-01-16 10:54:00,36.8,32.0,30.68,East,91,1.0,4.0,81,0.00,,,0.00,weatherlink.com 1.10,2013-01-16 18:54:00,
2013-01-16 11:09:00,37.4,32.0,30.68,ENE,60,3.0,5.0,80,0.00,,,0.00,weatherlink.com 1.10,2013-01-16 19:09:00,
2013-01-16 11:24:00,37.4,31.0,30.68,NE,53,5.0,8.0,78,0.00,,,0.00,weatherlink.com 1.10,2013-01-16 19:24:00,
2013-01-16 11:39:00,37.8,31.0,30.68,ENE,58,4.0,7.0,77,0.00,,,0.00,weatherlink.com 1.10,2013-01-16 19:39:00,
2013-01-16 11:54:00,38.1,31.0,30.67,NE,41,6.0,8.0,76,0.00,,,0.00,weatherlink.com 1.10,2013-01-16 19:54:00,
2013-01-16 12:09:00,38.3,31.0,30.67,NE,39,6.0,9.0,76,0.00,,,0.00,weatherlink.com 1.10,2013-01-16 20:09:00,
2013-01-16 12:24:00,38.3,31.0,30.66,NNE,15,2.0,7.0,76,0.00,,,0.00,weatherlink.com 1.10,2013-01-16 20:24:00,
2013-01-16 12:39:00,39.3,32.0,30.66,NNE,15,2.0,8.0,75,0.00,,,0.00,weatherlink.com 1.10,2013-01-16 20:39:00,
2013-01-16 12:54:00,38.7,31.0,30.65,NE,54,6.0,8.0,75,0.00,,,0.00,weatherlink.com 1.10,2013-01-16 20:54:00,
2013-01-16 13:09:00,39.3,31.0,30.64,NE,44,4.0,9.0,73,0.00,,,0.00,weatherlink.com 1.10,2013-01-16 21:09:00,
2013-01-16 13:24:00,39.5,32.0,30.64,North,358,5.0,8.0,74,0.00,,,0.00,weatherlink.com 1.10,2013-01-16 21:24:00,
2013-01-16 13:39:00,39.6,32.0,30.63,WNW,293,1.0,6.0,73,0.00,,,0.00,weatherlink.com 1.10,2013-01-16 21:39:00,
2013-01-16 13:54:00,39.7,32.0,30.63,North,349,4.0,7.0,73,0.00,,,0.00,weatherlink.com 1.10,2013-01-16 21:54:00,
2013-01-16 14:09:00,40.2,32.0,30.63,North,8,3.0,6.0,73,0.00,,,0.00,weatherlink.com 1.10,2013-01-16 22:09:00,
2013-01-16 14:24:00,40.5,32.0,30.63,NE,38,4.0,6.0,72,0.00,,,0.00,weatherlink.com 1.10,2013-01-16 22:24:00,
2013-01-16 14:39:00,40.4,32.0,30.63,NNE,21,2.0,5.0,73,0.00,,,0.00,weatherlink.com 1.10,2013-01-16 22:39:00,
2013-01-16 14:54:00,40.1,32.0,30.62,NNE,32,3.0,7.0,72,0.00,,,0.00,weatherlink.com 1.10,2013-01-16 22:54:00,
2013-01-16 15:09:00,40.7,32.0,30.63,NNE,25,2.0,4.0,71,0.00,,,0.00,weatherlink.com 1.10,2013-01-16 23:09:00,
2013-01-16 15:24:00,39.9,32.0,30.62,NNE,33,5.0,6.0,72,0.00,,,0.00,weatherlink.com 1.10,2013-01-16 23:24:00,
2013-01-16 15:39:00,40.0,32.0,30.62,NNE,22,2.0,6.0,72,0.00,,,0.00,weatherlink.com 1.10,2013-01-16 23:39:00,
2013-01-16 15:54:00,39.6,32.0,30.62,NNE,12,2.0,5.0,73,0.00,,,0.00,weatherlink.com 1.10,2013-01-16 23:54:00,
2013-01-16 16:10:00,39.3,32.0,30.62,North,349,2.0,6.0,74,0.00,,,0.00,weatherlink.com 1.10,2013-01-17 00:10:00,
2013-01-16 16:25:00,38.7,31.0,30.62,NE,39,4.0,6.0,75,0.00,,,0.00,weatherlink.com 1.10,2013-01-17 00:25:00,
2013-01-16 16:40:00,38.0,31.0,30.62,North,5,1.0,3.0,77,0.00,,,0.00,weatherlink.com 1.10,2013-01-17 00:40:00,
2013-01-16 16:55:00,37.7,31.0,30.62,North,356,0.0,2.0,77,0.00,,,0.00,weatherlink.com 1.10,2013-01-17 00:55:00,
2013-01-16 17:10:00,35.9,30.0,30.62,NE,44,0.0,1.0,80,0.00,,,0.00,weatherlink.com 1.10,2013-01-17 01:10:00,
2013-01-16 17:25:00,34.5,30.0,30.62,NE,37,2.0,2.0,82,0.00,,,0.00,weatherlink.com 1.10,2013-01-17 01:25:00,
2013-01-16 17:40:00,33.2,29.0,30.62,NNE,32,2.0,2.0,84,0.00,,,0.00,weatherlink.com 1.10,2013-01-17 01:40:00,
2013-01-16 17:55:00,32.5,29.0,30.62,NE,49,2.0,2.0,86,0.00,,,0.00,weatherlink.com 1.10,2013-01-17 01:55:00,
2013-01-16 18:10:00,31.8,29.0,30.61,NE,50,0.0,1.0,88,0.00,,,0.00,weatherlink.com 1.10,2013-01-17 02:10:00,
2013-01-16 18:25:00,31.5,28.0,30.61,NE,51,0.0,0.0,88,0.00,,,0.00,weatherlink.com 1.10,2013-01-17 02:25:00,
2013-01-16 18:40:00,30.9,28.0,30.61,ENE,61,2.0,2.0,89,0.00,,,0.00,weatherlink.com 1.10,2013-01-17 02:40:00,
2013-01-16 18:55:00,30.6,28.0,30.61,NE,37,0.0,1.0,90,0.00,,,0.00,weatherlink.com 1.10,2013-01-17 02:55:00,
2013-01-16 19:25:00,29.8,27.0,30.61,NE,51,0.0,2.0,90,0.00,,,0.00,weatherlink.com 1.10,2013-01-17 03:25:00,
2013-01-16 19:40:00,29.6,27.0,30.60,ENE,58,0.0,1.0,91,0.00,,,0.00,weatherlink.com 1.10,2013-01-17 03:40:00,
2013-01-16 19:55:00,29.6,27.0,30.59,East,79,0.0,2.0,91,0.00,,,0.00,weatherlink.com 1.10,2013-01-17 03:55:00,
2013-01-16 20:10:00,29.5,28.0,30.59,ENE,76,0.0,1.0,92,0.00,,,0.00,weatherlink.com 1.10,2013-01-17 04:10:00,
2013-01-16 20:25:00,29.2,27.0,30.59,NE,44,0.0,1.0,92,0.00,,,0.00,weatherlink.com 1.10,2013-01-17 04:25:00,
2013-01-16 20:40:00,28.9,27.0,30.59,NE,51,0.0,1.0,92,0.00,,,0.00,weatherlink.com 1.10,2013-01-17 04:40:00,
2013-01-16 20:55:00,29.0,27.0,30.59,NNE,16,0.0,1.0,92,0.00,,,0.00,weatherlink.com 1.10,2013-01-17 04:55:00,
2013-01-16 21:10:00,28.8,27.0,30.59,East,85,1.0,1.0,92,0.00,,,0.00,weatherlink.com 1.10,2013-01-17 05:10:00,
2013-01-16 21:25:00,28.4,26.0,30.59,East,98,1.0,1.0,92,0.00,,,0.00,weatherlink.com 1.10,2013-01-17 05:25:00,
2013-01-16 21:40:00,28.5,27.0,30.59,West,263,0.0,1.0,93,0.00,,,0.00,weatherlink.com 1.10,2013-01-17 05:40:00,
2013-01-16 21:55:00,28.3,26.0,30.58,NW,307,0.0,0.0,92,0.00,,,0.00,weatherlink.com 1.10,2013-01-17 05:55:00,
2013-01-16 22:10:00,28.0,26.0,30.58,East,98,0.0,1.0,93,0.00,,,0.00,weatherlink.com 1.10,2013-01-17 06:10:00,
2013-01-16 22:25:00,28.0,27.0,30.58,NNE,12,0.0,2.0,94,0.00,,,0.00,weatherlink.com 1.10,2013-01-17 06:25:00,
2013-01-16 22:40:00,27.8,26.0,30.58,NE,52,0.0,1.0,93,0.00,,,0.00,weatherlink.com 1.10,2013-01-17 06:40:00,
2013-01-16 23:10:00,27.4,26.0,30.58,NE,39,0.0,1.0,93,0.00,,,0.00,weatherlink.com 1.10,2013-01-17 07:10:00,
2013-01-16 23:25:00,27.1,25.0,30.58,NE,53,1.0,2.0,93,0.00,,,0.00,weatherlink.com 1.10,2013-01-17 07:25:00,
2013-01-16 23:40:00,27.1,25.0,30.58,NE,47,1.0,2.0,93,0.00,,,0.00,weatherlink.com 1.10,2013-01-17 07:40:00,
2013-01-16 23:55:00,27.4,26.0,30.59,East,84,2.0,3.0,94,0.00,,,0.00,weatherlink.com 1.10,2013-01-17 07:55:00,